Location: Unspecified
(0.0000°N, 0.0000°E)
Time: 13:38:15
(UTC+00:00)

A-11 Canister half - Pass Details

Date: 07 October 2023
Orbit: 1514 x 1686 km, 47.2° (Epoch: 05 December)

Event Time Altitude Azimuth Distance (km) Brightness Sun altitude
Rises 01:02:41 0° 321° (NW) 4,643 - -70.6°
Reaches altitude 10° 01:05:41 10° 321° (NW) 3,662 - -69.9°
Maximum altitude 01:14:55 89° 52° (NE) 1,526 - -67.7°
Drops below altitude 10° 01:24:22 10° 140° (SE) 3,739 - -65.4°
Exits shadow 01:25:44 - 140° (SE) 4,182 11.5 -65.0°
Sets 01:27:28 0° 140° (SE) 4,746 11.9 -64.6°
